timestamp,surface_pressure_avg,surface_temp_avg,battery_voltage,lat,long
2019-12-09 00:09:01+00:00,257.9781,4.09,12.81,47.84626,-54.09684
2019-12-09 00:19:01+00:00,251.4081,3.88,12.73,47.84626,-54.09684
2019-12-09 00:29:01+00:00,240.1364,3.5,12.73,47.84626,-54.09684
2019-12-09 00:39:01+00:00,232.2831,3.3,12.73,47.84626,-54.09684
2019-12-09 00:49:01+00:00,231.3064,3.28,12.73,47.84626,-54.09684
2019-12-09 00:59:01+00:00,223.9981,3.2,12.73,47.84626,-54.09684
2019-12-09 01:09:01+00:00,213.3748,3.1,12.73,47.84626,-54.09684
2019-12-09 01:19:01+00:00,209.1781,3.19,12.73,47.84626,-54.09684
2019-12-09 01:29:01+00:00,209.5181,3.3,12.73,47.84626,-54.09684
2019-12-09 01:39:01+00:00,204.4798,3.41,12.73,47.84626,-54.09684
2019-12-09 01:49:01+00:00,198.2581,3.5,12.73,47.84626,-54.09684
2019-12-09 01:59:01+00:00,198.4814,3.55,12.73,47.84626,-54.09684
2019-12-09 02:09:01+00:00,197.4715,3.6,12.73,47.84626,-54.09684
2019-12-09 02:19:01+00:00,195.6048,3.6,12.73,47.84626,-54.09684
2019-12-09 02:29:01+00:00,194.8064,3.77,12.73,47.84626,-54.09684
2019-12-09 02:39:01+00:00,191.3214,4.13,12.73,47.84626,-54.09684
2019-12-09 02:49:01+00:00,190.8865,4.6,12.73,47.84626,-54.09684
2019-12-09 02:59:01+00:00,193.9648,4.7,12.73,47.84626,-54.09684
2019-12-09 03:09:01+00:00,193.9348,4.6,12.73,47.84626,-54.09684
2019-12-09 03:19:01+00:00,191.5548,4.61,12.73,47.84626,-54.09684
2019-12-09 03:29:01+00:00,190.8231,4.68,12.73,47.84626,-54.09684
2019-12-09 03:39:01+00:00,195.5931,4.7,12.73,47.84626,-54.09684
2019-12-09 03:49:01+00:00,199.7332,4.81,12.73,47.84626,-54.09684
2019-12-09 03:59:01+00:00,197.9081,4.9,12.73,47.84626,-54.09684
2019-12-09 04:09:01+00:00,195.2065,4.6,12.73,47.84626,-54.09684
2019-12-09 04:19:01+00:00,199.0648,4.4,12.73,47.84626,-54.09684
2019-12-09 04:29:01+00:00,205.0948,4.45,12.73,47.84626,-54.09684
2019-12-09 04:39:01+00:00,204.6848,4.3,12.73,47.84626,-54.09684
2019-12-09 04:49:01+00:00,202.4248,4.2,12.73,47.84626,-54.09684
2019-12-09 04:59:01+00:00,208.5631,4.25,12.73,47.84626,-54.09684
2019-12-09 05:09:01+00:00,216.1214,4.37,12.73,47.84626,-54.09684
2019-12-09 05:19:01+00:00,219.6681,4.7,12.73,47.84626,-54.09684
2019-12-09 05:29:01+00:00,221.7931,4.5,12.73,47.84626,-54.09684
2019-12-09 05:39:01+00:00,228.6997,4.83,12.73,47.84626,-54.09684
2019-12-09 05:49:01+00:00,235.4614,5.18,12.73,47.84626,-54.09684
2019-12-09 05:59:01+00:00,238.7064,5.2,12.73,47.84626,-54.09684
2019-12-09 06:09:01+00:00,244.0031,5.25,12.73,47.84626,-54.09684
2019-12-09 06:19:01+00:00,250.7515,5.27,12.73,47.84626,-54.09684
2019-12-09 06:29:01+00:00,255.6164,5.28,12.73,47.84626,-54.09684
2019-12-09 06:39:01+00:00,259.4215,5.29,12.73,47.84626,-54.09684
2019-12-09 06:49:01+00:00,264.188,5.29,12.73,47.84626,-54.09684
2019-12-09 06:59:01+00:00,270.4981,5.24,12.73,47.84626,-54.09684
2019-12-09 07:09:01+00:00,278.043,5.2,12.73,47.84626,-54.09684
2019-12-09 07:19:01+00:00,284.728,5.2,12.65,47.84626,-54.09684
2019-12-09 07:29:01+00:00,286.408,5.19,12.65,47.84626,-54.09684
2019-12-09 07:39:01+00:00,292.3714,5.1,12.65,47.84626,-54.09684
2019-12-09 07:49:01+00:00,303.0397,5.0,12.65,47.84626,-54.09684
2019-12-09 07:59:01+00:00,315.043,5.0,12.65,47.84626,-54.09684
2019-12-09 08:09:01+00:00,317.108,5.0,12.65,47.84626,-54.09684
2019-12-09 08:19:01+00:00,319.168,4.99,12.65,47.84626,-54.09684
2019-12-09 08:29:01+00:00,327.413,5.0,12.65,47.84626,-54.09684
2019-12-09 08:39:01+00:00,334.2864,5.02,12.65,47.84626,-54.09684
2019-12-09 08:49:01+00:00,332.6597,5.1,12.65,47.84626,-54.09684
2019-12-09 08:59:01+00:00,332.2697,5.0,12.65,47.84626,-54.09684
2019-12-09 09:09:01+00:00,336.9896,5.01,12.65,47.84626,-54.09684
2019-12-09 09:19:01+00:00,339.0729,5.2,12.65,47.84626,-54.09684
2019-12-09 09:29:01+00:00,338.8213,5.22,12.65,47.84626,-54.09684
2019-12-09 09:39:01+00:00,340.4763,5.2,12.65,47.84626,-54.09684
2019-12-09 09:49:01+00:00,345.3497,5.2,12.65,47.84626,-54.09684
2019-12-09 09:59:01+00:00,346.0797,5.25,12.65,47.84626,-54.09684
2019-12-09 10:09:01+00:00,341.4014,5.26,12.65,47.84626,-54.09684
2019-12-09 10:19:01+00:00,342.5129,5.27,12.65,47.84626,-54.09684
2019-12-09 10:29:01+00:00,343.8796,5.27,12.65,47.84626,-54.09684
2019-12-09 10:39:01+00:00,338.7313,5.28,12.65,47.84626,-54.09684
2019-12-09 10:49:01+00:00,333.6113,5.25,12.65,47.84626,-54.09684
2019-12-09 10:59:01+00:00,333.9996,5.2,12.65,47.84626,-54.09684
2019-12-09 11:09:01+00:00,332.1514,5.24,12.65,47.84626,-54.09684
2019-12-09 11:19:01+00:00,329.7447,5.2,12.65,47.84626,-54.09684
2019-12-09 11:29:01+00:00,324.263,5.2,12.65,47.84626,-54.09684
2019-12-09 11:39:01+00:00,322.5663,5.19,12.65,47.84626,-54.09684
2019-12-09 11:49:01+00:00,319.8281,4.99,12.65,47.84626,-54.09684
2019-12-09 11:59:01+00:00,314.7264,4.89,12.65,47.84626,-54.09684
2019-12-09 12:09:01+00:00,307.153,4.88,12.65,47.84626,-54.09684
2019-12-09 12:19:01+00:00,301.4813,5.1,12.73,47.84626,-54.09684
2019-12-09 12:29:01+00:00,291.9397,5.19,12.73,47.84626,-54.09684
2019-12-09 12:39:01+00:00,279.2014,5.09,12.73,47.84626,-54.09684
2019-12-09 12:49:01+00:00,275.0464,5.03,12.73,47.84626,-54.09684
2019-12-09 12:59:01+00:00,268.6281,5.09,12.73,47.84626,-54.09684
2019-12-09 13:09:01+00:00,258.1981,5.1,12.73,47.84626,-54.09684
2019-12-09 13:19:01+00:00,251.9148,5.1,12.81,47.84626,-54.09684
2019-12-09 13:29:01+00:00,248.438,5.1,12.81,47.84626,-54.09684
2019-12-09 13:39:01+00:00,241.8247,5.09,12.81,47.84626,-54.09684
2019-12-09 13:49:01+00:00,235.3064,4.92,12.81,47.84626,-54.09684
2019-12-09 13:59:01+00:00,233.5881,4.9,12.81,47.84626,-54.09684
2019-12-09 14:09:01+00:00,228.4048,4.9,12.81,47.84626,-54.09684
2019-12-09 14:19:01+00:00,222.9948,4.99,12.81,47.84626,-54.09684
2019-12-09 14:29:01+00:00,218.9847,5.0,12.81,47.84626,-54.09684
2019-12-09 14:39:01+00:00,215.8948,4.9,12.81,47.84626,-54.09684
2019-12-09 14:49:01+00:00,214.0314,4.8,12.81,47.84626,-54.09684
2019-12-09 14:59:01+00:00,212.1531,4.7,12.81,47.84626,-54.09684
2019-12-09 15:09:01+00:00,208.5431,4.6,12.81,47.84626,-54.09684
2019-12-09 15:19:01+00:00,207.2115,4.54,12.89,47.84626,-54.09684
2019-12-09 15:29:01+00:00,206.1198,4.5,12.89,47.84626,-54.09684
2019-12-09 15:39:01+00:00,203.3281,4.46,12.89,47.84626,-54.09684
2019-12-09 15:49:01+00:00,201.9481,4.59,12.89,47.84626,-54.09684
2019-12-09 15:59:01+00:00,202.3064,4.77,12.89,47.84626,-54.09684
2019-12-09 16:09:01+00:00,204.6198,4.7,12.89,47.84626,-54.09684
2019-12-09 16:19:01+00:00,204.2715,4.6,12.89,47.84626,-54.09684
2019-12-09 16:29:01+00:00,200.2864,4.5,12.89,47.84626,-54.09684
2019-12-09 16:39:01+00:00,200.1564,4.3,12.89,47.84626,-54.09684
2019-12-09 16:49:01+00:00,200.9398,4.3,12.89,47.84626,-54.09684
2019-12-09 16:59:01+00:00,198.3331,4.2,12.89,47.84626,-54.09684
2019-12-09 17:09:01+00:00,196.1831,4.17,12.89,47.84626,-54.09684
2019-12-09 17:19:01+00:00,197.8814,4.1,12.81,47.84626,-54.09684
2019-12-09 17:29:01+00:00,199.9714,4.1,12.81,47.84626,-54.09684
2019-12-09 17:39:01+00:00,205.1831,4.1,12.81,47.84626,-54.09684
2019-12-09 17:49:01+00:00,213.7997,4.13,12.81,47.84626,-54.09684
2019-12-09 17:59:01+00:00,214.0764,4.19,12.81,47.84626,-54.09684
2019-12-09 18:09:01+00:00,213.2248,4.19,12.81,47.84626,-54.09684
2019-12-09 18:19:01+00:00,218.4864,4.2,12.73,47.84626,-54.09684
2019-12-09 18:29:01+00:00,222.4014,4.19,12.73,47.84626,-54.09684
2019-12-09 18:39:01+00:00,220.4198,4.15,12.73,47.84626,-54.09684
2019-12-09 18:49:01+00:00,220.7664,4.1,12.73,47.84626,-54.09684
2019-12-09 18:59:01+00:00,229.6631,4.13,12.73,47.84626,-54.09684
2019-12-09 19:09:01+00:00,238.1781,4.2,12.73,47.84626,-54.09684
2019-12-09 19:19:01+00:00,239.7064,4.2,12.73,47.84626,-54.09684
2019-12-09 19:29:01+00:00,243.5164,4.19,12.73,47.84626,-54.09684
2019-12-09 19:39:01+00:00,253.9014,4.11,12.73,47.84626,-54.09684
2019-12-09 19:49:01+00:00,263.7531,4.1,12.73,47.84626,-54.09684
2019-12-09 19:59:01+00:00,268.568,4.1,12.73,47.84626,-54.09684
2019-12-09 20:09:01+00:00,272.3081,4.03,12.73,47.84626,-54.09684
2019-12-09 20:19:01+00:00,278.3314,4.0,12.73,47.84626,-54.09684
2019-12-09 20:29:01+00:00,282.3397,4.0,12.73,47.84626,-54.09684
2019-12-09 20:39:01+00:00,284.3614,4.0,12.73,47.84626,-54.09684
2019-12-09 20:49:01+00:00,288.4847,4.0,12.73,47.84626,-54.09684
2019-12-09 20:59:01+00:00,295.9447,4.0,12.73,47.84626,-54.09684
2019-12-09 21:09:01+00:00,299.3046,4.0,12.73,47.84626,-54.09684
2019-12-09 21:19:01+00:00,300.1713,3.9,12.73,47.84626,-54.09684
2019-12-09 21:29:01+00:00,299.918,3.9,12.73,47.84626,-54.09684
2019-12-09 21:39:01+00:00,303.0331,3.9,12.73,47.84626,-54.09684
2019-12-09 21:49:01+00:00,304.6897,3.9,12.73,47.84626,-54.09684
2019-12-09 21:59:01+00:00,307.0147,3.9,12.73,47.84626,-54.09684
2019-12-09 22:09:01+00:00,305.4947,3.88,12.73,47.84626,-54.09684
2019-12-09 22:19:01+00:00,305.3397,3.8,12.73,47.84626,-54.09684
2019-12-09 22:29:01+00:00,307.3014,3.79,12.73,47.84626,-54.09684
2019-12-09 22:39:01+00:00,308.158,3.79,12.73,47.84626,-54.09684
2019-12-09 22:49:01+00:00,302.5864,3.8,12.73,47.84626,-54.09684
2019-12-09 22:59:01+00:00,297.6331,3.8,12.73,47.84626,-54.09684
2019-12-09 23:09:01+00:00,297.7764,3.7,12.73,47.84626,-54.09684
2019-12-09 23:19:01+00:00,294.988,3.5,12.73,47.84626,-54.09684
2019-12-09 23:29:01+00:00,286.9514,3.3,12.73,47.84626,-54.09684
2019-12-09 23:39:01+00:00,284.188,3.2,12.73,47.84626,-54.09684
2019-12-09 23:49:01+00:00,284.203,3.18,12.73,47.84626,-54.09684
2019-12-09 23:59:01+00:00,279.2998,3.1,12.73,47.84626,-54.09684
